Wind_Speed
25 24 17 16 14 11 11 21 37 31 35 30 32 41 42 41 39 35 34 31 31 30 28 31 32 26 28 27 25 24 22 22 18 17 17 18 19 16
18 20 23 18 17 16 14 8 17 23 30 31 34 37 37 38 37 35 34 31 30 34 34 37 33 31 33 30 28 25 22 18 16 16 17 17 17 17
14 14 16 17 15 15 17 17 14 17 18 23 26 28 35 39 38 36 38 35 34 38 41 40 35 33 24 29 29 24 22 20 20 20 20 20 19 18
17 13 11 12 14 16 16 18 16 16 15 18 18 25 29 32 36 39 40 40 39 33 38 37 36 33 27 26 26 25 24 22 21 21 21 19 19 19
12 11 10 10 11 13 17 18 19 20 20 19 20 21 25 29 30 31 32 36 35 34 31 36 36 32 28 25 27 27 27 26 25 24 23 22 20 20
12 10 8 8 8 10 10 11 12 14 15 17 19 22 24 27 27 33 31 30 31 33 34 34 36 31 32 26 26 27 28 27 26 25 23 23 22 21
15 14 12 9 8 6 5 8 10 9 10 10 12 15 18 21 27 33 39 38 34 32 30 29 30 28 23 24 27 27 28 27 26 25 25 25 23 22
18 17 16 15 14 10 8 6 5 5 7 8 8 8 9 12 15 19 27 33 34 38 36 35 32 30 24 23 28 28 28 28 27 27 26 24 23 23
16 15 14 14 12 10 10 8 7 6 5 4 5 6 7 8 11 14 18 21 27 31 31 32 32 28 24 26 29 30 29 29 29 27 25 24 23 23
14 13 12 12 9 8 8 8 8 7 6 4 3 3 5 7 9 10 12 16 21 24 23 22 26 27 27 30 31 31 31 30 27 25 25 24 23 22
12 13 12 15 8 7 4 4 5 4 4 5 5 4 1 2 5 9 11 14 17 19 22 23 22 19 25 31 32 31 30 29 28 26 25 24 23 23
10 10 11 10 9 4 5 5 5 4 1 2 2 3 3 5 5 5 6 10 13 14 18 21 19 19 21 26 30 30 31 32 30 28 27 26 25 25
8 8 7 8 8 7 4 5 6 2 2 1 2 4 5 5 7 9 8 8 11 15 15 17 23 24 24 15 28 32 33 31 31 29 29 30 29 29
6 7 9 5 3 4 6 2 6 5 4 3 3 2 4 7 8 10 10 12 14 15 14 18 20 21 25 26 28 26 24 28 31 31 32 30 30 30
7 6 5 4 4 2 4 6 6 6 7 8 7 6 6 6 8 11 13 15 16 15 18 22 22 22 25 28 30 30 32 35 33 33 33 33 31 31
9 8 7 6 4 4 4 4 4 5 7 7 7 7 6 8 11 10 11 13 16 18 20 20 20 21 24 26 28 29 29 27 26 25 27 29 30 29
4 4 3 2 1 1 3 4 5 6 7 7 7 8 12 13 13 12 12 14 13 15 17 16 17 20 23 24 25 27 28 29 28 26 24 26 28 29
4 2 1 1 0 1 1 2 3 4 6 7 8 9 9 8 11 13 14 15 13 11 9 13 16 17 20 23 24 24 25 26 27 28 28 28 30 29
7 4 4 5 5 5 6 6 6 6 7 8 9 9 11 12 12 10 13 18 19 20 22 21 20 19 19 18 20 20 19 18 18 17 18 20 23 23
10 11 10 8 7 7 8 8 9 9 10 10 11 12 12 12 14 16 16 16 17 19 21 22 22 21 23 25 23 22 22 22 22 21 25 26 28 30
15 13 12 10 8 5 5 6 7 8 11 12 13 14 15 16 15 14 15 18 19 21 22 20 19 19 21 21 21 22 20 20 21 19 21 22 22 27
18 15 12 9 6 5 4 5 7 9 12 14 16 18 19 19 18 18 18 18 17 21 26 23 19 19 18 20 24 27 27 24 22 23 24 24 23 26
20 17 14 12 10 8 7 6 8 10 13 15 18 20 22 24 24 23 21 19 19 18 18 21 21 22 23 23 24 26 28 28 29 32 35 34 36 38
Wind_Direction
226 229 231 225 241 257 237 213 212 195 199 196 195 193 195 196 199 199 197 189 188 192 192 198 195 207 198 192 192 187 192 200 199 198 197 198 194 187
203 213 228 240 228 238 255 255 239 219 199 204 200 198 197 196 194 196 194 195 195 195 195 198 199 205 208 204 208 204 212 215 208 210 209 209 214 218
191 193 193 198 210 224 237 243 247 241 225 221 218 201 198 196 196 197 199 199 197 198 198 205 212 218 224 221 217 218 219 215 210 210 210 212 214 219
162 171 178 190 198 200 204 213 218 229 234 229 229 227 217 203 195 195 196 196 200 206 208 210 218 220 224 222 226 226 225 221 218 219 222 223 222 225
147 159 177 179 181 190 204 212 220 227 229 232 231 232 231 224 212 202 198 193 194 192 199 204 216 220 230 231 229 228 226 222 222 224 225 226 225 226
122 125 135 152 164 173 175 184 204 210 215 217 218 226 230 231 227 223 215 199 194 194 199 200 205 211 230 234 230 229 227 225 225 226 225 228 230 230
111 110 103 106 107 123 159 176 188 194 203 209 211 216 219 222 223 224 226 221 216 213 214 215 215 214 219 229 231 233 233 231 230 229 228 228 228 230
108 107 108 104 103 105 111 131 151 170 194 203 211 222 229 231 235 234 230 224 222 223 229 234 237 238 233 241 244 240 235 232 230 230 230 230 233 236
99 97 97 93 91 94 107 113 126 138 156 179 213 224 227 231 233 236 238 236 236 237 236 237 238 237 232 234 241 241 237 234 233 230 228 231 238 242
103 99 96 81 70 80 82 82 80 88 100 119 157 196 226 236 231 224 226 238 243 244 244 244 240 232 235 238 236 234 235 236 233 234 237 238 240 246
111 108 112 105 74 75 86 74 61 54 60 70 66 51 331 228 231 237 230 228 233 239 241 244 238 243 245 244 241 239 236 234 233 235 239 242 244 251
130 128 114 130 107 87 105 104 102 61 55 264 259 285 324 335 334 303 273 247 235 240 240 234 229 233 240 242 243 240 238 237 239 242 244 248 251 253
150 150 128 98 110 119 123 132 106 173 165 250 259 256 247 242 287 295 290 285 277 264 254 242 238 231 227 235 233 235 236 240 243 245 248 253 254 254
137 132 131 118 152 186 147 210 228 242 256 260 276 299 277 256 241 235 249 267 270 272 270 253 251 247 242 245 245 241 237 237 240 243 245 246 248 252
117 130 163 203 254 251 229 259 262 264 270 273 274 273 276 278 271 261 255 248 247 249 250 249 254 256 253 253 255 253 252 255 258 258 259 261 264 267
138 129 117 107 85 64 45 26 351 326 294 279 275 275 279 275 269 273 272 270 266 262 259 257 256 255 256 255 255 256 254 252 255 258 266 272 274 273
165 172 169 153 122 348 352 355 345 343 350 352 329 293 277 277 279 277 272 268 271 275 271 267 262 255 252 253 256 255 260 262 264 267 266 269 270 270
174 198 198 172 5 14 5 14 351 341 334 320 317 320 324 314 281 270 271 270 266 261 257 259 257 257 255 254 252 256 262 265 269 272 271 270 271 270
251 249 296 311 318 326 325 326 322 311 311 311 313 315 297 293 294 294 273 265 271 275 275 274 275 277 279 276 270 264 267 264 263 257 258 257 264 269
258 277 289 293 294 300 306 310 310 307 302 295 289 290 289 292 284 278 278 278 279 278 277 279 277 273 273 277 280 275 273 272 272 271 271 271 268 271
264 272 279 283 286 292 308 321 327 326 314 306 297 289 285 282 279 285 282 274 275 273 273 277 281 273 267 270 268 270 269 267 269 268 274 275 279 282
257 262 267 252 243 253 281 308 322 324 319 311 299 288 281 278 279 282 281 284 286 279 271 269 268 259 261 270 275 279 280 275 263 263 269 274 278 281
247 252 240 232 233 243 261 290 311 319 317 310 301 290 279 274 272 275 276 277 282 285 284 269 260 263 269 273 278 276 275 277 278 277 274 277 283 285
Height
1474 1477 1485 1485 1489 1495 1497 1497 1503 1506 1511 1515 1518 1524 1528 1532 1535 1540 1545 1548 1554 1558 1561 1563 1568 1574 1578 1583 1584 1585 1587 1588 1589 1592 1596 1598 1601 1602
1472 1475 1478 1478 1488 1491 1495 1500 1504 1506 1506 1510 1515 1519 1525 1529 1532 1537 1542 1547 1552 1556 1557 1559 1565 1567 1573 1578 1581 1582 1582 1586 1588 1592 1594 1597 1598 1599
1467 1472 1475 1481 1482 1485 1490 1500 1501 1507 1504 1510 1513 1514 1520 1523 1530 1534 1539 1543 1550 1552 1552 1557 1561 1565 1567 1573 1577 1578 1580 1582 1586 1589 1592 1593 1593 1595
1466 1469 1474 1478 1480 1482 1487 1494 1500 1502 1503 1506 1511 1515 1519 1521 1522 1528 1533 1538 1544 1548 1551 1552 1558 1561 1565 1568 1571 1574 1577 1579 1583 1586 1589 1590 1591 1592
1465 1468 1474 1477 1478 1481 1485 1490 1492 1495 1498 1500 1505 1511 1515 1522 1523 1526 1532 1533 1537 1541 1545 1548 1555 1557 1560 1563 1568 1571 1574 1576 1578 1581 1583 1586 1587 1589
1466 1468 1474 1477 1479 1480 1481 1483 1490 1492 1495 1499 1501 1506 1511 1517 1520 1525 1530 1529 1534 1535 1538 1542 1546 1550 1556 1559 1562 1566 1571 1572 1573 1576 1577 1581 1583 1585
1469 1471 1474 1476 1477 1479 1482 1485 1489 1490 1493 1496 1499 1504 1507 1511 1515 1519 1524 1527 1532 1534 1538 1541 1542 1544 1550 1557 1559 1562 1566 1568 1569 1572 1574 1576 1577 1580
1471 1474 1477 1479 1479 1482 1484 1486 1487 1489 1491 1494 1498 1501 1504 1508 1511 1515 1519 1521 1525 1527 1531 1536 1539 1542 1546 1552 1557 1559 1561 1563 1565 1567 1568 1570 1573 1575
1473 1476 1478 1480 1483 1484 1486 1487 1488 1488 1488 1491 1496 1499 1501 1504 1507 1510 1514 1519 1521 1523 1525 1528 1532 1535 1539 1546 1550 1555 1556 1557 1560 1562 1562 1563 1567 1570
1475 1479 1481 1483 1484 1485 1486 1487 1489 1490 1490 1491 1495 1497 1500 1504 1505 1508 1511 1515 1518 1520 1522 1524 1528 1531 1536 1541 1543 1547 1550 1552 1554 1557 1558 1558 1559 1563
1478 1482 1484 1485 1486 1486 1487 1489 1489 1492 1492 1493 1495 1498 1500 1501 1503 1505 1508 1511 1512 1516 1519 1520 1524 1529 1534 1536 1538 1541 1544 1546 1549 1550 1552 1553 1552 1555
1479 1484 1487 1487 1488 1487 1489 1491 1491 1493 1494 1496 1497 1497 1497 1501 1502 1504 1506 1509 1510 1512 1515 1519 1521 1526 1528 1531 1534 1536 1537 1540 1543 1545 1546 1547 1547 1548
1481 1485 1486 1488 1488 1488 1489 1491 1492 1494 1495 1496 1495 1497 1497 1500 1502 1502 1505 1506 1508 1510 1513 1515 1517 1520 1521 1523 1525 1529 1531 1534 1536 1538 1539 1539 1540 1541
1482 1481 1484 1487 1485 1486 1488 1488 1490 1492 1492 1494 1494 1494 1495 1497 1499 1501 1503 1503 1504 1508 1510 1512 1514 1517 1518 1518 1520 1522 1524 1527 1528 1528 1529 1529 1530 1531
1479 1482 1481 1483 1486 1486 1484 1487 1489 1489 1490 1490 1491 1492 1492 1494 1497 1499 1500 1501 1501 1504 1507 1508 1509 1511 1513 1513 1514 1516 1518 1518 1519 1520 1520 1520 1521 1521
1484 1480 1483 1484 1486 1486 1485 1485 1486 1486 1487 1488 1487 1488 1490 1492 1494 1495 1496 1497 1496 1499 1503 1503 1504 1505 1506 1507 1508 1508 1509 1511 1511 1511 1511 1510 1510 1512
1482 1482 1484 1485 1485 1485 1484 1484 1485 1484 1485 1486 1485 1485 1489 1490 1492 1493 1494 1494 1494 1495 1497 1497 1498 1499 1500 1500 1501 1502 1502 1503 1504 1504 1504 1503 1503 1503
1481 1481 1483 1484 1483 1483 1484 1483 1482 1482 1483 1484 1484 1485 1486 1487 1488 1488 1489 1491 1490 1491 1490 1491 1493 1493 1493 1494 1495 1495 1496 1496 1496 1496 1496 1495 1493 1494
1477 1477 1478 1478 1477 1476 1477 1477 1478 1478 1478 1480 1481 1482 1482 1483 1484 1484 1485 1486 1486 1487 1488 1489 1489 1488 1488 1488 1489 1490 1490 1489 1489 1488 1487 1488 1486 1486
1472 1472 1473 1473 1474 1474 1473 1473 1473 1474 1474 1476 1477 1478 1478 1479 1480 1480 1481 1482 1483 1483 1482 1482 1482 1483 1483 1482 1482 1482 1483 1483 1482 1481 1480 1479 1478 1477
1467 1468 1469 1469 1469 1469 1470 1470 1470 1470 1470 1471 1471 1472 1474 1474 1475 1475 1475 1476 1476 1476 1476 1476 1477 1477 1477 1476 1474 1475 1477 1478 1476 1475 1473 1472 1470 1468
1463 1464 1465 1465 1466 1467 1468 1468 1468 1468 1468 1468 1468 1468 1469 1470 1470 1471 1471 1471 1470 1470 1469 1470 1471 1471 1471 1471 1470 1469 1469 1469 1470 1468 1467 1466 1465 1461
1459 1460 1461 1462 1464 1465 1465 1465 1465 1465 1465 1465 1465 1465 1464 1464 1465 1466 1466 1466 1466 1465 1464 1465 1465 1465 1464 1464 1464 1463 1462 1461 1460 1459 1458 1458 1456 1453